Starlink 5903

operational
NORAD ID: 55996 Int'l Des: 2023-042 Owner: SPXS Country: US Constellation: starlink
LEOCIRCULAR

About Starlink 5903

Description loading...

Live Position

Loading 3D Globe...

Upcoming Passes

Altitude History

Altitude vs Time

uPlot chart will show altitude changes over time

Two-Line Element Set

1 55996U 23042L 25338.64233253 .00001460 00000-0 12314-3 0 9999
2 55996 43.0056 212.5027 0001294 275.6055 84.4640 15.02526458148613
Epoch: Dec 4, 2025 • Age: 11 hours

Current Status

Altitude 558.3 km
Velocity 7.58 km/s
Sub-Earth Point 7.80°N, 104.68°E
Launch Date Mar 24, 2023
Age 2.6 years
Type internet

Technical Details

Classification Payload
Mass 305.00 kg
Dry Mass 290.00 kg
Total Mass 305.00 kg
Length 0.20 m
Diameter 2.80 m
Span 9.00 m
Shape Box + pan
Manufacturer SPXS
Bus Type Starlink
Phase Status In Orbit
Owner/State SPXS/US

Large Constellations

Loading constellations...